[[{"header":{"parameterUnit":"m.s-1","parameterCategory":1,"la1":30.2991,"la2":30.254,"lo1":-89.0895,"lo2":-89.0444,"dy":0.0017,"dx":0.0017,"nx":28,"ny":28,"refTime":"2023-07-24T09:00:00:Z","depth":0,"parameterNumber":2,"parameterNumberName":"U-component_of_WINDS"},"data":[0,0,0,0,0,0,0,0,0,0,0,0,0,0,0,0,0,0,0,0,0,0,0,0,0,0,0,0,0,0,0,0,0,0,0,0,0,0,0,0,0,0,0,0,0,0,0,0,0,0,0,0,0,0,0,0,0,0,1.8077,1.8078,0,1.8182,1.8183,1.8184,1.8203,1.8202,1.8201,1.82,1.8308,1.8311,1.8315,0,0,0,0,0,0,0,0,0,0,0,0,0,1.7891,1.7894,1.8076,1.8078,1.8079,1.8181,1.8183,1.8184,1.8203,1.8202,1.8201,1.82,1.8306,1.8311,1.8315,0,0,0,0,0,0,0,0,0,0,0,0,0,1.7981,1.7895,1.8076,1.8101,1.8104,1.8181,1.8183,1.8185,1.8203,1.8202,1.8201,1.8199,1.8305,1.831,1.8316,1.8376,0,0,1.8332,1.8335,0,0,0,0,0,0,0,0,1.7976,1.7988,1.8096,1.8099,1.8103,1.8178,1.8157,1.8249,1.8204,1.8166,1.82,1.8199,1.8265,1.8274,1.8297,1.8381,1.8385,1.8333,1.8336,1.8339,1.834,0,0,0,0,0,0,0,1.797,1.7983,1.8118,1.8097,1.8102,1.8106,1.8118,1.8174,1.8221,1.8169,1.817,1.8183,1.8267,1.8291,1.8299,1.8387,1.8333,1.8338,1.8341,1.8343,1.8524,1.8525,0,0,0,0,0,0,1.7959,1.7978,1.8115,1.8121,1.8035,1.811,1.8123,1.8155,1.8221,1.823,1.8184,1.8183,1.8282,1.8293,1.8303,1.8377,1.8339,1.8344,1.8347,1.8523,1.8524,1.8526,0,0,0,0,0,0,1.7955,1.7971,1.811,1.805,1.8068,1.8115,1.8151,1.8158,1.8182,1.8232,1.8241,1.82,1.8282,1.8295,1.8357,1.8381,1.8346,1.8351,1.8521,1.8523,1.8525,1.8524,0,0,0,0,0,0,1.795,1.797,1.7993,1.8051,1.8071,1.8163,1.8152,1.8161,1.8191,1.8192,1.8249,1.8258,1.8282,1.8349,1.8363,1.8387,1.8355,1.8519,1.8522,1.8524,1.8522,1.8526,1.853,0,0,0,0,0,1.7943,1.7989,1.7994,1.8011,1.8102,1.8164,1.8176,1.8203,1.8193,1.8217,1.8249,1.8256,1.8376,1.8355,1.8371,1.8397,1.8517,1.8521,1.8524,1.8521,1.8526,1.8529,0,0,0,0,0,0,1.7933,1.7997,1.8003,1.8069,1.8111,1.8167,1.8198,1.8207,1.8253,1.8251,1.8283,1.8296,1.8355,1.8383,1.8358,1.8458,1.8446,1.8453,1.8438,1.8443,1.8446,1.8438,1.836,0,0,0,0,0,1.7938,1.7984,1.8037,1.809,1.8111,1.8151,1.8179,1.8196,1.8241,1.8259,1.8295,1.8338,1.8385,1.8416,1.8462,1.8527,1.8539,1.8553,1.8557,1.8559,1.8564,1.8599,1.8606,1.8537,1.8537,1.8537,0,0,1.7949,1.799,1.8017,1.8089,1.8124,1.817,1.8166,1.8215,1.8249,1.8266,1.8326,1.8355,1.8405,1.8468,1.8497,1.8492,1.8586,1.8564,1.8565,1.8569,1.8604,1.861,1.8616,1.8539,1.8539,1.8539,0,0,1.7994,1.803,1.8077,1.8112,1.8164,1.819,1.8202,1.8257,1.8276,1.8337,1.8351,1.8392,1.8473,1.8508,1.8536,1.8593,1.86,1.8607,1.8625,1.8659,1.8665,1.8669,1.8689,1.8695,1.8612,1.8612,1.8612,0,1.8001,1.8071,1.81,1.8149,1.8179,1.8197,1.8245,1.8277,1.8342,1.8363,1.8356,1.8458,1.8493,1.8564,1.8578,1.86,1.8614,1.86,1.8662,1.8667,1.8672,1.869,1.8698,1.8613,1.8613,1.8613,1.8613,0,1.8077,1.8126,1.8158,1.822,1.8255,1.8302,1.8338,1.8369,1.8384,1.841,1.8472,1.8514,1.8569,1.8588,1.8602,1.8661,1.8656,1.8655,1.8643,1.8678,1.8696,1.8704,1.8613,1.8613,1.8613,1.8613,0,0,1.8117,1.8194,1.8206,1.8233,1.8293,1.833,1.8379,1.8433,1.8458,1.8503,1.8543,1.8612,1.8611,1.8643,1.8662,1.8692,1.8733,1.8688,1.8689,1.8693,1.8798,1.8797,1.8805,1.8739,1.874,1.8741,1.8794,0,1.8167,1.8254,1.8282,1.8354,1.8399,1.8416,1.8459,1.8499,1.8525,1.8567,1.8596,1.8643,1.864,1.8659,1.869,1.8721,1.8754,1.8718,1.8776,1.8778,1.8761,1.8815,1.8814,1.8861,1.8801,1.8802,1.8803,0,1.8237,1.8282,1.8359,1.8412,1.8432,1.8469,1.852,1.856,1.8606,1.8623,1.8659,1.8675,1.8725,1.8711,1.8781,1.8756,1.8782,1.8801,1.8803,1.8809,1.8791,1.882,1.8877,1.8884,1.8815,1.8814,1.8813,0,1.8257,1.8337,1.8393,1.8417,1.848,1.8506,1.8533,1.8578,1.8608,1.8653,1.8673,1.8723,1.875,1.8788,1.8817,1.8804,1.8884,1.8873,1.8899,1.8898,1.8914,1.8912,1.8974,1.8932,1.8932,1.8932,1.8932,0,1.8309,1.8355,1.8402,1.8437,1.8489,1.852,1.857,1.8599,1.8638,1.8678,1.8697,1.8734,1.8771,1.8812,1.8835,1.8889,1.8901,1.8916,1.8921,1.8914,1.8912,1.893,1.8927,1.8934,1.8934,1.8933,1.8933,0,1.8339,1.8373,1.8435,1.849,1.8505,1.854,1.8587,1.8621,1.8648,1.8698,1.8712,1.8754,1.8804,1.8837,1.8901,1.8917,1.8975,1.898,1.8959,1.8961,1.8985,1.8982,1.906,1.9071,1.9023,1.9023,1.9024,0,1.8369,1.8405,1.8464,1.8492,1.8519,1.8565,1.8596,1.8628,1.8659,1.8714,1.8741,1.8792,1.8835,1.8914,1.895,1.8999,1.9005,1.9029,1.9012,1.9003,1.9003,1.9,1.9004,1.9031,1.9031,1.9031,1.9032,0,1.8419,1.8434,1.8478,1.8528,1.8565,1.8606,1.8646,1.8668,1.8707,1.8741,1.8793,1.8826,1.8891,1.8941,1.8993,1.9021,1.9033,1.9037,1.9045,1.9037,1.9023,1.9029,1.8965,1.9035,1.9034,1.9034,1.9034,1.9034,1.8449,1.8481,1.8528,1.8576,1.861,1.8648,1.8682,1.8714,1.8757,1.8813,1.8829,1.8882,1.8927,1.8998,1.9027,1.9069,1.9066,1.9079,1.9082,1.9084,1.9083,1.9017,1.9079,1.9079,1.9079,1.9079,1.9079,0,1.8499,1.8529,1.8574,1.863,1.8668,1.8676,1.8722,1.8753,1.8799,1.8841,1.8882,1.8941,1.8989,1.903,1.908,1.9106,1.9112,1.9118,1.9116,1.9122,1.9083,1.907,1.9112,1.9112,1.9112,1.9112,1.9112,1.9112,1.8529,1.8584,1.8604,1.8676,1.8706,1.8758,1.8784,1.8818,1.8851,1.8916,1.8956,1.8982,1.9023,1.9077,1.9122,1.9132,1.9149,1.9153,1.9165,1.9128,1.9124,1.9121,1.9109,1.9157,1.9157,1.92,1.92,1.92]},{"header":{"parameterUnit":"m.s-1","parameterCategory":1,"la1":30.2991,"la2":30.254,"lo1":-89.0895,"lo2":-89.0444,"dy":0.0017,"dx":0.0017,"nx":28,"ny":28,"refTime":"2023-07-24T09:00:00:Z","depth":0,"parameterNumber":3,"parameterNumberName":"V-component_of_WINDS"},"data":[0,0,0,0,0,0,0,0,0,0,0,0,0,0,0,0,0,0,0,0,0,0,0,0,0,0,0,0,0,0,0,0,0,0,0,0,0,0,0,0,0,0,0,0,0,0,0,0,0,0,0,0,0,0,0,0,0,0,4.2862,4.2862,0,4.2835,4.2835,4.2835,4.2784,4.2783,4.2782,4.2781,4.2754,4.2754,4.2755,0,0,0,0,0,0,0,0,0,0,0,0,0,4.2871,4.2871,4.2862,4.2862,4.2861,4.2835,4.2835,4.2835,4.2784,4.2783,4.2781,4.278,4.2754,4.2754,4.2755,0,0,0,0,0,0,0,0,0,0,0,0,0,4.2858,4.2871,4.2862,4.2833,4.283,4.2835,4.2835,4.2835,4.2784,4.2783,4.2781,4.278,4.2754,4.2754,4.2755,4.2787,0,0,4.2756,4.2756,0,0,0,0,0,0,0,0,4.2859,4.2858,4.2838,4.2835,4.2832,4.2811,4.2828,4.2819,4.2784,4.2802,4.2781,4.2779,4.2774,4.2773,4.2771,4.2786,4.2785,4.2756,4.2756,4.2756,4.2756,0,0,0,0,0,0,0,4.286,4.2858,4.2852,4.2837,4.2834,4.2822,4.2818,4.2826,4.2797,4.28,4.2796,4.2794,4.2773,4.2771,4.277,4.2784,4.2756,4.2756,4.2756,4.2756,4.2824,4.2825,0,0,0,0,0,0,4.2865,4.2859,4.2852,4.2851,4.2842,4.2823,4.2819,4.2819,4.2797,4.2792,4.2795,4.2791,4.2771,4.277,4.2769,4.2805,4.2756,4.2756,4.2757,4.2822,4.2824,4.2826,0,0,0,0,0,0,4.2865,4.2864,4.2853,4.2854,4.2852,4.2824,4.2825,4.282,4.2818,4.2793,4.2787,4.2799,4.277,4.2769,4.2783,4.2803,4.2757,4.2757,4.282,4.2823,4.2825,4.2877,0,0,0,0,0,0,4.2865,4.2865,4.2876,4.2855,4.2852,4.2867,4.2826,4.282,4.2819,4.2814,4.2795,4.279,4.2769,4.2783,4.2783,4.2803,4.2757,4.2818,4.2821,4.2824,4.2873,4.2881,4.2887,0,0,0,0,0,4.2866,4.2892,4.2877,4.2876,4.2866,4.2868,4.2867,4.2841,4.2821,4.2832,4.2816,4.2791,4.2801,4.2784,4.2785,4.2805,4.2817,4.282,4.2824,4.287,4.2879,4.2887,0,0,0,0,0,0,4.2917,4.2889,4.2872,4.2892,4.2883,4.286,4.2873,4.2852,4.2849,4.2844,4.2813,4.2809,4.2827,4.2818,4.2799,4.2835,4.2805,4.2809,4.284,4.2849,4.2856,4.2857,4.2758,0,0,0,0,0,4.2931,4.2935,4.291,4.293,4.2927,4.2901,4.2901,4.2882,4.2872,4.2868,4.2853,4.2844,4.2845,4.2847,4.2847,4.2872,4.2867,4.2886,4.2893,4.2899,4.2902,4.2915,4.2923,4.2837,4.2837,4.2837,0,0,4.2959,4.2944,4.2948,4.294,4.2931,4.2936,4.2898,4.2905,4.2909,4.2869,4.2881,4.287,4.2858,4.2878,4.2886,4.2871,4.2925,4.2904,4.2909,4.2908,4.2919,4.2928,4.2935,4.284,4.2839,4.2839,0,0,4.3012,4.3002,4.3017,4.3009,4.2995,4.2978,4.2982,4.2963,4.2954,4.2965,4.2935,4.294,4.2943,4.2936,4.2932,4.2985,4.2961,4.2986,4.3022,4.3034,4.3041,4.3047,4.3065,4.3072,4.2989,4.2989,4.299,0,4.3048,4.3054,4.3027,4.3036,4.3034,4.2999,4.3014,4.3008,4.2995,4.2994,4.2977,4.298,4.297,4.2988,4.3,4.2999,4.3003,4.2987,4.3042,4.3048,4.3053,4.3069,4.3076,4.2992,4.2992,4.2992,4.2991,0,4.31,4.3105,4.3119,4.3107,4.3107,4.3119,4.3094,4.3097,4.3079,4.3064,4.3077,4.3063,4.306,4.3063,4.3045,4.3078,4.3069,4.3048,4.3017,4.3064,4.3079,4.3086,4.2997,4.2996,4.2995,4.2994,0,0,4.3182,4.3157,4.3162,4.3157,4.314,4.3144,4.3155,4.3151,4.3154,4.3148,4.3156,4.316,4.314,4.3137,4.3118,4.313,4.3171,4.3107,4.3106,4.3118,4.3206,4.3221,4.3229,4.3157,4.3158,4.3159,4.3207,0,4.3231,4.3248,4.3224,4.3247,4.3251,4.3218,4.3228,4.322,4.3207,4.3209,4.3194,4.3197,4.3172,4.3169,4.3179,4.3164,4.3188,4.3161,4.3164,4.3164,4.3166,4.3237,4.3253,4.3299,4.3213,4.3214,4.3214,0,4.3289,4.3285,4.3308,4.329,4.3291,4.33,4.3295,4.3298,4.3288,4.3278,4.3274,4.3253,4.3263,4.3235,4.3248,4.323,4.323,4.3224,4.3225,4.3223,4.3191,4.3236,4.3313,4.3319,4.3224,4.3223,4.3222,0,4.3346,4.3346,4.336,4.3356,4.3336,4.3344,4.3336,4.3324,4.3324,4.332,4.3319,4.3317,4.3316,4.3315,4.3293,4.3275,4.3309,4.3279,4.3301,4.3301,4.3308,4.3308,4.3385,4.3311,4.3311,4.3311,4.3311,0,4.3402,4.3416,4.3385,4.3393,4.3409,4.3383,4.3399,4.3388,4.3379,4.3384,4.3357,4.3363,4.3335,4.3339,4.3322,4.3336,4.3336,4.3328,4.3323,4.3329,4.333,4.3328,4.3323,4.3313,4.3312,4.3312,4.3312,0,4.3467,4.3446,4.3458,4.3439,4.3435,4.3447,4.3431,4.3438,4.3424,4.3431,4.3432,4.341,4.3412,4.3391,4.339,4.3379,4.34,4.339,4.3403,4.3399,4.3422,4.3419,4.3499,4.3508,4.343,4.3431,4.3431,0,4.3502,4.3513,4.3495,4.3497,4.349,4.3494,4.3493,4.3469,4.3469,4.3459,4.3467,4.3468,4.3466,4.3472,4.3456,4.3455,4.3445,4.3473,4.3444,4.345,4.3444,4.3443,4.3443,4.3478,4.3479,4.348,4.3481,0,4.3568,4.3558,4.3558,4.3554,4.3555,4.3551,4.3546,4.3549,4.3522,4.3525,4.3527,4.3526,4.3525,4.3526,4.3522,4.3514,4.3493,4.349,4.3495,4.35,4.3507,4.3502,4.3418,4.3488,4.3487,4.3486,4.3486,4.3486,4.3619,4.3626,4.3615,4.3616,4.361,4.3606,4.3611,4.3598,4.3599,4.3596,4.3582,4.3587,4.3578,4.357,4.3565,4.3569,4.3555,4.3562,4.3564,4.3565,4.3569,4.3508,4.3568,4.3568,4.3568,4.3567,4.3567,0,4.3682,4.3673,4.3674,4.3668,4.3669,4.365,4.3643,4.3645,4.365,4.3643,4.3642,4.3645,4.3646,4.3631,4.363,4.3636,4.3626,4.3636,4.3635,4.3633,4.3581,4.3577,4.3644,4.3644,4.3644,4.3644,4.3644,4.3644,4.3714,4.3726,4.3715,4.3724,4.3716,4.372,4.3718,4.3714,4.3708,4.3712,4.3713,4.3703,4.3693,4.3691,4.3691,4.3687,4.3687,4.3701,4.3693,4.3644,4.3637,4.363,4.3625,4.3701,4.3701,4.3744,4.3744,4.3745]}]]